SWA3605 PHOG-PHLI

Flight info

Callsign SWA3605
Flight time 0h 35m
Altitude 26000
Route MAUI5 OGG LNY V16 NAPUA LIH
Aircraft B738/M-SDE2E3FGHIRWXY/LB1

Departure

Time 2026-05-07 18:59
Airport Kahului International Airport (PHOG)

Arrival

Time 2026-05-07 19:35
Airport Lihue Airport (PHLI)
Time Latitude Longitude Altitude Speed Heading
2026-05-07 18:53 20.89255 -156.43695 44 ft 3 kts 305°
2026-05-07 18:53 20.89240 -156.43673 40 ft 2 kts 306°
2026-05-07 18:53 20.89231 -156.43657 41 ft 4 kts 246°
2026-05-07 18:54 20.89247 -156.43640 42 ft 4 kts 215°
2026-05-07 18:54 20.89256 -156.43633 42 ft 0 kts 215°
2026-05-07 18:56 20.89255 -156.43634 42 ft 1 kts 214°
2026-05-07 18:56 20.89245 -156.43638 42 ft 5 kts 197°
2026-05-07 18:56 20.89181 -156.43616 44 ft 15 kts 180°
2026-05-07 18:57 20.89068 -156.43680 44 ft 20 kts 215°
2026-05-07 18:57 20.88987 -156.43700 44 ft 10 kts 135°
2026-05-07 18:57 20.88943 -156.43644 43 ft 9 kts 133°
2026-05-07 18:57 20.88955 -156.43605 41 ft 2 kts 33°
2026-05-07 18:58 20.88955 -156.43604 41 ft 0 kts 34°
2026-05-07 18:58 20.88957 -156.43603 41 ft 0 kts 34°
2026-05-07 18:58 20.88980 -156.43586 43 ft 21 kts 35°
2026-05-07 18:58 20.89306 -156.43342 46 ft 92 kts 35°
2026-05-07 18:59 20.90000 -156.42832 69 ft 145 kts 34°
2026-05-07 18:59 20.90870 -156.42217 625 ft 155 kts 30°
2026-05-07 18:59 20.91924 -156.41871 1166 ft 163 kts
2026-05-07 18:59 20.93077 -156.41718 1714 ft 176 kts 10°
2026-05-07 19:00 20.94368 -156.41518 2175 ft 190 kts
2026-05-07 19:00 20.95721 -156.41328 2797 ft 198 kts
2026-05-07 19:00 20.97112 -156.41388 3451 ft 210 kts 341°
2026-05-07 19:00 20.98224 -156.42460 3893 ft 234 kts 300°
2026-05-07 19:01 20.98583 -156.44256 4169 ft 263 kts 271°
2026-05-07 19:01 20.98365 -156.46256 4754 ft 275 kts 258°
2026-05-07 19:01 20.97887 -156.48229 5626 ft 274 kts 255°
2026-05-07 19:01 20.97361 -156.50207 6422 ft 277 kts 254°
2026-05-07 19:02 20.96832 -156.52195 7194 ft 280 kts 254°
2026-05-07 19:02 20.96309 -156.54212 7992 ft 282 kts 255°
2026-05-07 19:02 20.95795 -156.56238 8873 ft 283 kts 255°
2026-05-07 19:02 20.95289 -156.58267 9794 ft 282 kts 255°
2026-05-07 19:03 20.94784 -156.60324 10429 ft 292 kts 255°
2026-05-07 19:03 20.94250 -156.62512 10635 ft 317 kts 255°
2026-05-07 19:03 20.93677 -156.64876 10817 ft 340 kts 255°
2026-05-07 19:03 20.93070 -156.67391 11109 ft 355 kts 255°
2026-05-07 19:04 20.92445 -156.69989 11581 ft 365 kts 255°
2026-05-07 19:04 20.91809 -156.72633 12193 ft 369 kts 255°
2026-05-07 19:04 20.91172 -156.75289 12938 ft 369 kts 255°
2026-05-07 19:04 20.90529 -156.77964 13599 ft 374 kts 256°
2026-05-07 19:05 20.89885 -156.80642 14123 ft 380 kts 256°
2026-05-07 19:05 20.89224 -156.83392 14736 ft 382 kts 255°
2026-05-07 19:05 20.88561 -156.86142 15474 ft 382 kts 255°
2026-05-07 19:05 20.87895 -156.88907 16045 ft 387 kts 255°
2026-05-07 19:06 20.87215 -156.91727 16534 ft 394 kts 255°
2026-05-07 19:06 20.85831 -156.97458 17645 ft 403 kts 255°
2026-05-07 19:06 20.85355 -156.99432 17957 ft 408 kts 255°
2026-05-07 19:07 20.84643 -157.02375 18533 ft 410 kts 255°
2026-05-07 19:07 20.83929 -157.05329 19054 ft 412 kts 255°
2026-05-07 19:07 20.83208 -157.08304 19511 ft 416 kts 255°
2026-05-07 19:07 20.82607 -157.11327 20047 ft 417 kts 263°
2026-05-07 19:08 20.82563 -157.14430 20565 ft 420 kts 274°
2026-05-07 19:08 20.83049 -157.17518 21035 ft 423 kts 285°
2026-05-07 19:08 20.84005 -157.20497 21568 ft 425 kts 289°
2026-05-07 19:08 20.85032 -157.23468 22093 ft 426 kts 289°
2026-05-07 19:09 20.86030 -157.26443 22658 ft 426 kts 288°
2026-05-07 19:09 20.87008 -157.29442 23105 ft 429 kts 288°
2026-05-07 19:09 20.87978 -157.32466 23522 ft 432 kts 287°
2026-05-07 19:09 20.88952 -157.35518 23913 ft 434 kts 287°
2026-05-07 19:10 20.89931 -157.38584 24240 ft 438 kts 287°
2026-05-07 19:10 20.90911 -157.41682 24602 ft 440 kts 288°
2026-05-07 19:10 20.91896 -157.44741 24966 ft 443 kts 288°
2026-05-07 19:10 20.92914 -157.47903 25304 ft 445 kts 288°
2026-05-07 19:11 20.93905 -157.51000 25714 ft 446 kts 288°
2026-05-07 19:11 20.94907 -157.54127 26091 ft 444 kts 287°
2026-05-07 19:11 20.95907 -157.57273 26121 ft 450 kts 287°
2026-05-07 19:11 20.96909 -157.60474 26128 ft 457 kts 288°
2026-05-07 19:12 20.97933 -157.63714 26140 ft 463 kts 288°
2026-05-07 19:12 20.98973 -157.66980 26131 ft 463 kts 288°
2026-05-07 19:12 21.00009 -157.70231 26130 ft 461 kts 288°
2026-05-07 19:12 21.01040 -157.73471 26127 ft 460 kts 288°
2026-05-07 19:13 21.02069 -157.76713 26136 ft 459 kts 288°
2026-05-07 19:13 21.03093 -157.79946 26132 ft 459 kts 288°
2026-05-07 19:13 21.04118 -157.83187 26136 ft 459 kts 288°
2026-05-07 19:13 21.05142 -157.86428 26135 ft 460 kts 288°
2026-05-07 19:14 21.06166 -157.89671 26135 ft 461 kts 288°
2026-05-07 19:14 21.07192 -157.92921 26131 ft 461 kts 288°
2026-05-07 19:14 21.08225 -157.96170 26134 ft 461 kts 288°
2026-05-07 19:14 21.09277 -157.99410 26147 ft 459 kts 288°
2026-05-07 19:15 21.10324 -158.02624 26143 ft 455 kts 287°
2026-05-07 19:15 21.11337 -158.05836 25941 ft 458 kts 287°
2026-05-07 19:15 21.12346 -158.09080 25328 ft 456 kts 287°
2026-05-07 19:15 21.13341 -158.12289 24641 ft 452 kts 287°
2026-05-07 19:16 21.14342 -158.15457 23985 ft 447 kts 287°
2026-05-07 19:16 21.15326 -158.18597 23223 ft 443 kts 287°
2026-05-07 19:16 21.16297 -158.21710 22512 ft 438 kts 288°
2026-05-07 19:16 21.17257 -158.24793 21834 ft 434 kts 288°
2026-05-07 19:17 21.18217 -158.27844 21173 ft 430 kts 288°
2026-05-07 19:17 21.19223 -158.30844 20513 ft 427 kts 292°
2026-05-07 19:17 21.20615 -158.33637 19869 ft 424 kts 301°
2026-05-07 19:17 21.22203 -158.36286 19201 ft 422 kts 302°
2026-05-07 19:18 21.23795 -158.38914 18545 ft 419 kts 302°
2026-05-07 19:18 21.25366 -158.41537 17813 ft 417 kts 302°
2026-05-07 19:18 21.26912 -158.44154 17053 ft 415 kts 301°
2026-05-07 19:18 21.28442 -158.46766 16324 ft 412 kts 301°
2026-05-07 19:19 21.29956 -158.49358 15667 ft 408 kts 301°
2026-05-07 19:19 21.31454 -158.51919 15019 ft 404 kts 301°
2026-05-07 19:19 21.32920 -158.54423 14381 ft 400 kts 301°
2026-05-07 19:19 21.34395 -158.56939 13726 ft 397 kts 301°
2026-05-07 19:20 21.35873 -158.59464 13053 ft 392 kts 301°
2026-05-07 19:20 21.37296 -158.61897 12423 ft 387 kts 300°
2026-05-07 19:20 21.38718 -158.64328 11811 ft 382 kts 300°
2026-05-07 19:20 21.40121 -158.66729 11251 ft 377 kts 300°
2026-05-07 19:21 21.41483 -158.69057 11108 ft 360 kts 301°
2026-05-07 19:21 21.42789 -158.71291 10940 ft 347 kts 301°
2026-05-07 19:21 21.44044 -158.73442 10798 ft 334 kts 300°
2026-05-07 19:21 21.45255 -158.75518 10657 ft 322 kts 301°
2026-05-07 19:22 21.46429 -158.77533 10487 ft 314 kts 300°
2026-05-07 19:22 21.47566 -158.79484 10354 ft 303 kts 300°
2026-05-07 19:22 21.48665 -158.81369 10385 ft 293 kts 301°
2026-05-07 19:22 21.49741 -158.83217 10395 ft 295 kts 300°
2026-05-07 19:23 21.50847 -158.85118 10297 ft 305 kts 301°
2026-05-07 19:23 21.51986 -158.87074 9873 ft 308 kts 301°
2026-05-07 19:23 21.53094 -158.88971 9897 ft 292 kts 300°
2026-05-07 19:23 21.54158 -158.90791 9692 ft 285 kts 300°
2026-05-07 19:24 21.55199 -158.92577 9435 ft 281 kts 301°
2026-05-07 19:24 21.56233 -158.94349 9170 ft 278 kts 300°
2026-05-07 19:24 21.57260 -158.96110 8808 ft 279 kts 300°
2026-05-07 19:24 21.58282 -158.97865 8524 ft 277 kts 300°
2026-05-07 19:25 21.59301 -158.99614 8188 ft 277 kts 301°
2026-05-07 19:25 21.60326 -159.01375 7837 ft 278 kts 301°
2026-05-07 19:25 21.61339 -159.03117 7621 ft 273 kts 300°
2026-05-07 19:25 21.62348 -159.04850 7280 ft 274 kts 301°
2026-05-07 19:26 21.63342 -159.06558 7130 ft 266 kts 300°
2026-05-07 19:26 21.64312 -159.08227 6777 ft 268 kts 300°
2026-05-07 19:26 21.65300 -159.09928 6451 ft 269 kts 301°
2026-05-07 19:26 21.66280 -159.11614 6270 ft 263 kts 301°
2026-05-07 19:27 21.67236 -159.13259 6149 ft 255 kts 301°
2026-05-07 19:27 21.68160 -159.14849 6041 ft 247 kts 301°
2026-05-07 19:27 21.69053 -159.16386 5951 ft 239 kts 301°
2026-05-07 19:27 21.69927 -159.17920 5748 ft 235 kts 300°
2026-05-07 19:28 21.70771 -159.19408 5595 ft 230 kts 299°
2026-05-07 19:28 21.71597 -159.20862 5425 ft 227 kts 299°
2026-05-07 19:28 21.72410 -159.22296 5180 ft 227 kts 300°
2026-05-07 19:28 21.73216 -159.23716 5119 ft 218 kts 300°
2026-05-07 19:29 21.74001 -159.25090 4962 ft 214 kts 301°
2026-05-07 19:29 21.74782 -159.26437 4813 ft 210 kts 301°
2026-05-07 19:29 21.75550 -159.27760 4611 ft 209 kts 301°
2026-05-07 19:29 21.76308 -159.29065 4518 ft 201 kts 301°
2026-05-07 19:30 21.77026 -159.30303 4397 ft 192 kts 301°
2026-05-07 19:30 21.77738 -159.31531 4108 ft 195 kts 301°
2026-05-07 19:30 21.78477 -159.32762 3775 ft 197 kts 309°
2026-05-07 19:30 21.79637 -159.33517 3368 ft 202 kts 352°
2026-05-07 19:31 21.81040 -159.33533 3081 ft 201 kts 358°
2026-05-07 19:31 21.82430 -159.33575 2813 ft 199 kts 358°
2026-05-07 19:31 21.83806 -159.33592 2554 ft 197 kts
2026-05-07 19:31 21.85173 -159.33593 2295 ft 196 kts
2026-05-07 19:32 21.86519 -159.33593 2075 ft 191 kts
2026-05-07 19:32 21.87817 -159.33592 1814 ft 181 kts
2026-05-07 19:32 21.89051 -159.33591 1561 ft 172 kts
2026-05-07 19:32 21.90206 -159.33591 1351 ft 157 kts
2026-05-07 19:33 21.91237 -159.33591 1125 ft 141 kts
2026-05-07 19:33 21.92199 -159.33590 973 ft 136 kts
2026-05-07 19:33 21.93152 -159.33589 765 ft 137 kts
2026-05-07 19:33 21.94095 -159.33590 583 ft 135 kts
2026-05-07 19:34 21.95038 -159.33593 417 ft 135 kts
2026-05-07 19:34 21.95964 -159.33594 218 ft 132 kts
2026-05-07 19:34 21.96882 -159.33593 99 ft 128 kts
2026-05-07 19:34 21.97527 -159.33590 99 ft 63 kts
2026-05-07 19:35 21.97801 -159.33628 102 ft 27 kts 339°
2026-05-07 19:35 21.97914 -159.33692 102 ft 9 kts 323°
2026-05-07 19:35 21.97941 -159.33750 103 ft 9 kts 278°
2026-05-07 19:35 21.97939 -159.33814 106 ft 9 kts 271°
2026-05-07 19:36 21.97940 -159.33895 112 ft 13 kts 271°
2026-05-07 19:36 21.97941 -159.34010 115 ft 18 kts 270°
2026-05-07 19:36 21.97941 -159.34158 118 ft 22 kts 269°
2026-05-07 19:36 21.97940 -159.34332 121 ft 18 kts 264°
2026-05-07 19:37 21.97865 -159.34438 131 ft 20 kts 225°
2026-05-07 19:37 21.97763 -159.34547 140 ft 14 kts 225°
2026-05-07 19:37 21.97742 -159.34613 144 ft 10 kts 304°
2026-05-07 19:37 21.97787 -159.34665 151 ft 9 kts 315°
2026-05-07 19:38 21.97770 -159.34734 154 ft 13 kts 227°
2026-05-07 19:38 21.97764 -159.34777 152 ft 4 kts 309°
2026-05-07 19:38 21.97788 -159.34804 152 ft 4 kts 314°
2026-05-07 19:38 21.97792 -159.34809 152 ft 0 kts 314°